Regional Weather Roundup
Issued by NWS Green Bay, WI

Home | Current Version | Previous Version | Text Only | Print | Product List | Glossary On
Versions: 1 2 3 4 5 6 7 8 9 10 11 12 13 14 15 16 17 18 19 20 21 22 23 24 25 26 27 28 29 30 31 32 33 34 35 36 37 38 39 40 41 42 43 44 45 46 47 48 49 50
000
ASUS43 KGRB 030400
RWRGRB

NORTH-CENTRAL AND NORTHEAST WISCONSIN REGIONAL WEATHER ROUNDUP
NATIONAL WEATHER SERVICE GREEN BAY WI
1100 PM CDT SUN AUG 02 2015

WIZ005-009-010>012-018-019-030500-
NORTH CENTRAL WISCONSIN

CITY           SKY/WX    TMP DP  RH WIND       PRES   REMARKS
IRONWOOD       CLEAR     57  52  82 SW3       29.71S
MANITOWISH WTR NOT AVBL
ARBOR VITAE    NOT AVBL
EAGLE RIVER    NOT AVBL
LAND O LAKES   NOT AVBL
RHINELANDER    PTCLDY    58  56  93 W7        29.75R
PHILLIPS       MOCLDY    61  53  74 NW3       29.76R
ANTIGO         NOT AVBL
TOMAHAWK       NOT AVBL
MERRILL        NOT AVBL
$$

WIZ013-073-030500-
NORTHEAST WISCONSIN

CITY           SKY/WX    TMP DP  RH WIND       PRES   REMARKS
IRON MOUNTAIN  CLEAR     57  55  93 CALM      29.67S
MARINETTE      MOCLDY    63  59  88 W3        29.66S
$$

WIZ017-030-035>037-045-030500-
CENTRAL WISCONSIN

CITY           SKY/WX    TMP DP  RH WIND       PRES   REMARKS
MEDFORD        NOT AVBL
WAUSAU         PTCLDY    67  57  70 NW3       29.73R
MOSINEE        NOT AVBL
MARSHFIELD     PTCLDY    65  56  72 NW6       29.76R
WISC RAPIDS    CLEAR     69  57  65 N8        29.76R
STEVENS POINT  NOT AVBL
WAUPACA        NOT AVBL
SHAWANO        NOT AVBL
CLINTONVILLE   CLOUDY    68  57  68 NW6       29.70R
$$

WIZ038-039-048-051-030500-
FOX VALLEY

CITY           SKY/WX    TMP DP  RH WIND       PRES   REMARKS
NWS GREEN BAY  CLOUDY    65  63  93 W5        29.69R
APPLETON       MOCLDY    66  59  77 NW12      29.71R
OSHKOSH        CLEAR     67  62  84 W6        29.69S
FOND DU LAC    MOCLDY    66  64  93 W5        29.71R
$$

WIZ022-050-052-030500-
EAST CENTRAL WISCONSIN

CITY           SKY/WX    TMP DP  RH WIND       PRES   REMARKS
STURGEON BAY   MOCLDY    61  57  88 CALM      29.69S
MANITOWOC      NOT AVBL
SHEBOYGAN      MOCLDY    65  61  87 MISG      29.68S
$$

LMZ563-521-522-541>543-030500-
LAKESHORE

STATION/POSITION TIME  TEMP    WIND        PRES    VSBY  WAVE
                       AIR SEA DIR/SP/G                  HT/PER
                 (UTC) (F)     (DEG/KT/KT) (MB)    (MI)  (FT/S)
SHEBOYGAN LKSHOR 0300   69     300/ 11/ 13 1004.6R
KEWAUNEE LKSHORE 0300   63     290/  4/  5 1004.1R
NORTHPORT PIER   0300   66     270/  4/  8 1004.1S
N MID LAKE BUOY  0250   67 68  270/ 10/ 12 1003.1R         2/ 5
S GREEN BAY BUOY 0300   67 69  280/  6/  8 1006.0R
CHAMBERS ISLAND  0300   66     230/  2/  4 1004.1F
MENOMINEE LKSHOR 0300   66     260/  6/  6 1005.2S
$$


USA.gov is the U.S. government's official web portal to all federal, state and local government web resources and services.